This is the latest recevied weather packets stored in our database for station/object KG4ZVW. If no packets are shown the sender has not sent any weather packets the latest 10 day(s).
| Time | Temp. | Humidity | Pressure | Rain* | Wind** | Luminosity | Snow |
|---|---|---|---|---|---|---|---|
| 1777238012 | 30° C | 51% | 1009.4 hPa | 0 mm | - | 216 W/m² | - |
| 1777237709 | 30° C | 52% | 1009.3 hPa | 0 mm | - | 218 W/m² | - |
| 1777237406 | 30° C | 54% | 1009.3 hPa | 0 mm | - | 223 W/m² | - |
| 1777237123 | 30° C | 55% | 1009.3 hPa | 0 mm | - | 225 W/m² | - |
| 1777236819 | 30° C | 55% | 1008.9 hPa | 0 mm | - | 167 W/m² | - |
| 1777236514 | 29.44° C | 56% | 1008.9 hPa | 0 mm | - | 148 W/m² | - |
| 1777236211 | 30° C | 55% | 1008.9 hPa | 0 mm | - | 128 W/m² | - |
| 1777235924 | 30° C | 54% | 1008.8 hPa | 0 mm | - | 156 W/m² | - |
| 1777235619 | 30.56° C | 55% | 1008.8 hPa | 0 mm | - | 214 W/m² | - |
| 1777235314 | 30° C | 57% | 1008.8 hPa | 0 mm | - | 213 W/m² | - |
| 1777235009 | 30° C | 57% | 1008.9 hPa | 0 mm | - | 227 W/m² | - |
| 1777234704 | 30° C | 56% | 1008.9 hPa | 0 mm | - | 225 W/m² | - |
| 1777234419 | 30.56° C | 55% | 1008.9 hPa | 0 mm | - | 246 W/m² | - |
| 1777234111 | 30.56° C | 54% | 1009.2 hPa | 0 mm | - | 244 W/m² | - |
| 1777233805 | 30.56° C | 56% | 1009.2 hPa | 0 mm | - | 146 W/m² | - |
| 1777233520 | 30.56° C | 55% | 1009.2 hPa | 0 mm | - | 128 W/m² | - |
| 1777233215 | 30.56° C | 54% | 1009.3 hPa | 0 mm | - | 141 W/m² | - |
| 1777232909 | 31.11° C | 54% | 1009.3 hPa | 0 mm | - | 178 W/m² | - |
| 1777232605 | 31.11° C | 54% | 1009.3 hPa | 0 mm | - | 186 W/m² | - |
| 1777232305 | 30.56° C | 54% | 1009.1 hPa | 0 mm | - | 158 W/m² | - |
| 1777232019 | 31.11° C | 53% | 1009.1 hPa | 0 mm | - | 163 W/m² | - |
| 1777231719 | 31.67° C | 52% | 1009.1 hPa | 0 mm | - | 236 W/m² | - |
* Rain latest hour (hover to see other rain measurements)
** Current wind speed in m/s (hover to see current wind gust speed)